TimeEET,TemperatureF,Dew PointF,Humidity,Sea Level PressureIn,VisibilityMPH,Wind Direction,Wind SpeedMPH,Gust SpeedMPH,PrecipitationIn,Events,Conditions,WindDirDegrees,DateUTC
12:00 AM,96.8,55.4,25,29.71,-9999.0,NE,4.6,-,N/A,,Clear,50,2013-06-12 22:00:00
1:00 AM,93.2,55.4,28,29.71,-9999.0,North,2.3,-,N/A,,Clear,10,2013-06-12 23:00:00
2:00 AM,89,54,21,29.70,6,Calm,Calm,,,,,,2013-06-13 00:00:00
2:00 AM,89.6,55.4,31,29.71,-9999.0,Calm,Calm,-,N/A,,Clear,0,2013-06-13 00:00:00
3:00 AM,86.0,55.4,35,29.71,-9999.0,WNW,3.5,-,N/A,,Clear,300,2013-06-13 01:00:00
4:00 AM,84.2,57.2,40,29.71,-9999.0,WSW,4.6,-,N/A,,Clear,250,2013-06-13 02:00:00
5:00 AM,82.4,57.2,42,29.74,-9999.0,WSW,4.6,-,N/A,,Clear,240,2013-06-13 03:00:00
6:00 AM,82.4,57.2,42,29.74,-9999.0,SW,3.5,-,N/A,,Clear,230,2013-06-13 04:00:00
7:00 AM,87.8,55.4,33,29.74,-9999.0,WSW,1.2,-,N/A,,Clear,240,2013-06-13 05:00:00
8:00 AM,90,57,23,29.76,6,West,2.3,,,,,280,2013-06-13 06:00:00
8:00 AM,91.4,57.2,31,29.77,-9999.0,West,2.3,-,N/A,,Clear,280,2013-06-13 06:00:00
9:00 AM,93.2,57.2,30,29.77,-9999.0,NNW,6.9,-,N/A,,Clear,340,2013-06-13 07:00:00
10:00 AM,95.0,55.4,26,29.77,-9999.0,NNW,4.6,-,N/A,,Clear,340,2013-06-13 08:00:00
11:00 AM,96.8,55.4,25,29.77,-9999.0,North,4.6,-,N/A,,Clear,350,2013-06-13 09:00:00
12:00 PM,98.6,55.4,24,29.74,-9999.0,NW,6.9,-,N/A,,Clear,320,2013-06-13 10:00:00
1:00 PM,102.2,55.4,21,29.74,-9999.0,NW,5.8,-,N/A,,Clear,320,2013-06-13 11:00:00
1:32 PM,98.6,55.4,24,29.74,-9999.0,NW,6.9,-,N/A,,Clear,320,2013-06-13 11:32:00
2:00 PM,103,53,11,29.70,6,West,8.1,,,,,280,2013-06-13 12:00:00
2:00 PM,102.2,51.8,18,29.71,-9999.0,West,8.1,-,N/A,,Clear,280,2013-06-13 12:00:00
3:00 PM,102.2,53.6,20,29.71,-9999.0,WNW,10.4,-,N/A,,Clear,300,2013-06-13 13:00:00
4:00 PM,102.2,53.6,20,29.71,-9999.0,WNW,10.4,-,N/A,,Clear,300,2013-06-13 14:00:00
5:00 PM,100.4,53.6,21,29.68,-9999.0,WNW,9.2,-,N/A,,Clear,300,2013-06-13 15:00:00
6:00 PM,96.8,55.4,25,29.71,-9999.0,WNW,9.2,-,N/A,,Clear,300,2013-06-13 16:00:00
7:00 PM,93.2,55.4,28,29.71,-9999.0,WNW,8.1,-,N/A,,Clear,290,2013-06-13 17:00:00
8:00 PM,91,53,18,29.72,6,WNW,11.5,,,,,300,2013-06-13 18:00:00
8:00 PM,91.4,53.6,28,29.74,-9999.0,WNW,11.5,-,N/A,,Clear,300,2013-06-13 18:00:00
9:00 PM,87.8,53.6,31,29.74,-9999.0,WNW,3.5,-,N/A,,Clear,300,2013-06-13 19:00:00
10:00 PM,86.0,53.6,33,29.77,-9999.0,WNW,3.5,-,N/A,,Clear,300,2013-06-13 20:00:00
11:00 PM,86.0,53.6,33,29.77,-9999.0,Calm,Calm,-,N/A,,Clear,0,2013-06-13 21:00:00